Location: Central Falls
(41.8900°N, 71.3929°W)
Time: 03:03:07
(UTC+00:00)

Vanguard 2 Rocket - Pass Details

Date: 07 December 2023
Orbit: 555 x 3309 km, 32.9° (Epoch: 01 March)

Event Time Altitude Azimuth Distance (km) Brightness Sun altitude
Rises 17:30:54 0° 221° (SW) 5,533 11.9 24.3°
Reaches altitude 10° 17:34:19 10° 214° (SW) 4,863 12.1 24.1°
Maximum altitude 17:48:13 44° 149° (SSE) 3,772 10.8 23.4°
Drops below altitude 10° 18:06:18 10° 87° (E) 6,256 11.0 22.2°
Sets 18:11:24 0° 81° (E) 7,196 11.2 21.9°
